Date String (YYYY-MM-DD hh:mm:ss) UTC,Instrument flags,absolute air pressure of the measurement (hPa),sample flow rate (lpm),inlet stack bypass flow (lpm),air temperature of the measurement (°C),ambient temperature measured by the external sensor (°C),aerosol sample conditioner tube jacket temperature (°C),OPC LED temperature (°C),internal box temperature (°C),relative humidity of the measurement (%),span deviation,mass concentration of particles derived from Lorenz-Mie calculation of OPC scattering (μg/m³),mass concentration of particles derived from Lorenz-Mie calculation of OPC scattering (μg/m³),mass concentration of particles derived from Lorenz-Mie calculation of OPC scattering (μg/m³)
DateTimeUTC,F1_M11,P_M11,Q1_M11,Q2_M11,T1_M11,T2_M11,T3_M11,T4_M11,T5_M11,U1_M11,ZSPAN_M11,X0_M11,X2_M11,X1_M11
2023-06-06 13:00:00,SystemResetWarning,0832.2,5.01,000.00,028.9,027.2,000.0,037.4,030.4,26.4,0000.0,0006.60,0003.80,0003.43
2023-06-06 13:01:00,SystemResetWarning,0832.2,5.00,000.00,028.9,027.2,000.0,037.4,030.3,26.1,0000.0,0006.80,0003.83,0003.44
2023-06-06 13:02:00,SystemResetWarning,0832.2,4.99,000.00,028.9,027.2,000.0,037.5,030.4,25.9,0000.0,0006.76,0003.83,0003.45
2023-06-06 13:03:00,SystemResetWarning,0832.2,5.01,000.00,028.9,027.3,000.0,037.5,030.4,25.8,0000.0,0006.63,0003.84,0003.46
2023-06-06 13:04:00,SystemResetWarning,0832.2,5.01,000.00,028.9,027.2,000.0,037.5,030.4,25.8,0000.0,0006.52,0003.87,0003.49
2023-06-06 13:05:00,SystemResetWarning,0832.2,5.00,000.00,028.9,027.2,000.0,037.5,030.4,26.1,0000.0,0006.58,0003.89,0003.51
2023-06-06 13:06:00,SystemResetWarning,0832.2,5.00,000.00,028.9,027.2,000.0,037.5,030.4,26.5,0000.0,0006.49,0003.88,0003.51
2023-06-06 13:07:00,SystemResetWarning,0832.2,5.00,000.00,028.9,027.2,000.0,037.5,030.5,26.4,0000.0,0006.68,0003.96,0003.55
2023-06-06 13:08:00,SystemResetWarning,0832.2,5.01,000.00,028.9,027.3,000.0,037.5,030.5,26.5,0000.0,0006.96,0004.05,0003.60
2023-06-06 13:09:00,SystemResetWarning,0832.2,5.00,000.00,028.9,027.3,000.0,037.5,030.4,27.1,0000.0,0007.15,0004.10,0003.63
2023-06-06 13:10:00,SystemResetWarning,0832.2,5.00,000.00,028.9,027.3,000.0,037.5,030.4,27.0,0000.0,0007.11,0004.11,0003.67
2023-06-06 13:11:00,SystemResetWarning,0832.2,5.00,000.00,029.0,027.3,000.0,037.5,030.5,27.4,0000.0,0007.12,0004.16,0003.70
2023-06-06 13:12:00,SystemResetWarning,0832.2,5.00,000.00,029.0,027.3,000.0,037.5,030.5,27.5,0000.0,0007.20,0004.18,0003.73
2023-06-06 13:13:00,SystemResetWarning,0832.2,5.00,000.00,029.0,027.3,000.0,037.5,030.5,27.6,0000.0,0007.38,0004.22,0003.77
2023-06-06 13:14:00,SystemResetWarning,0832.2,5.01,000.00,029.0,027.3,000.0,037.5,030.5,27.4,0000.0,0007.49,0004.29,0003.83
2023-06-06 13:15:00,SystemResetWarning,0832.2,5.00,000.00,029.0,027.3,000.0,037.5,030.4,27.4,0000.6,0007.70,0004.39,0003.92
2023-06-06 13:16:00,SystemResetWarning,0832.1,4.99,000.00,029.0,027.3,000.0,037.5,030.4,27.4,0000.6,0007.77,0004.45,0004.00
2023-06-06 13:17:00,SystemResetWarning,0832.1,5.01,000.00,029.0,027.3,000.0,037.5,030.4,27.8,0000.1,0007.93,0004.55,0004.07
2023-06-06 13:18:00,SystemResetWarning,0832.1,5.01,000.00,029.0,027.3,000.0,037.5,030.5,28.0,-000.0,0008.11,0004.68,0004.17
2023-06-06 13:19:00,SystemResetWarning,0832.1,4.99,000.00,029.0,027.3,000.0,037.5,030.5,28.6,-000.3,0008.28,0004.81,0004.30
2023-06-06 13:20:00,SystemResetWarning,0832.1,5.00,000.00,029.0,027.3,000.0,037.5,030.5,28.0,-000.3,0008.35,0004.93,0004.42
2023-06-06 13:21:00,SystemResetWarning,0832.1,5.01,000.00,029.0,027.3,000.0,037.5,030.5,27.9,0000.1,0008.54,0005.06,0004.52
2023-06-06 13:22:00,SystemResetWarning,0832.0,5.01,000.00,029.0,027.3,000.0,037.5,030.4,28.0,0000.7,0008.67,0005.19,0004.63
2023-06-06 13:23:00,SystemResetWarning,0832.0,4.99,000.00,029.0,027.3,000.0,037.5,030.4,28.5,0000.6,0008.76,0005.32,0004.76
2023-06-06 13:24:00,SystemResetWarning,0832.0,5.00,000.00,029.0,027.3,000.0,037.5,030.5,28.5,0000.4,0008.88,0005.45,0004.88
2023-06-06 13:25:00,SystemResetWarning,0832.0,5.00,000.00,029.0,027.3,000.0,037.5,030.5,28.3,0000.2,0009.01,0005.57,0005.00
2023-06-06 13:26:00,SystemResetWarning,0832.0,4.99,000.00,029.0,027.3,000.0,037.5,030.5,28.4,-000.0,0009.19,0005.64,0005.08
2023-06-06 13:27:00,SystemResetWarning,0832.0,5.01,000.00,029.0,027.3,000.0,037.6,030.5,28.4,-000.1,0009.46,0005.72,0005.14
2023-06-06 13:28:00,SystemResetWarning,0832.0,5.00,000.00,029.0,027.3,000.0,037.6,030.5,28.4,-000.2,0009.47,0005.78,0005.21
2023-06-06 13:29:00,SystemResetWarning,0832.0,5.00,000.00,029.0,027.3,000.0,037.6,030.5,28.1,-000.1,0009.41,0005.76,0005.24
2023-06-06 13:30:00,SystemResetWarning,0832.0,5.01,000.00,029.0,027.3,000.0,037.5,030.4,27.7,0000.3,0009.30,0005.71,0005.23
2023-06-06 13:31:00,SystemResetWarning,0832.0,5.00,000.00,029.0,027.3,000.0,037.5,030.5,27.9,0000.9,0009.25,0005.65,0005.21
2023-06-06 13:32:00,SystemResetWarning,0832.0,4.99,000.00,029.0,027.3,000.0,037.5,030.5,28.0,0001.1,0009.27,0005.61,0005.18
2023-06-06 13:33:00,SystemResetWarning,0832.0,4.99,000.00,029.0,027.3,000.0,037.6,030.5,28.1,0001.0,0009.23,0005.58,0005.15
2023-06-06 13:34:00,SystemResetWarning,0832.1,5.00,000.00,029.0,027.4,000.0,037.6,030.5,28.0,0000.9,0009.18,0005.54,0005.11
2023-06-06 13:35:00,SystemResetWarning,0832.0,5.01,000.00,029.0,027.4,000.0,037.6,030.5,28.3,0001.0,0009.09,0005.50,0005.05
2023-06-06 13:36:00,SystemResetWarning,0832.0,5.01,000.00,029.1,027.4,000.0,037.6,030.5,28.6,0000.9,0009.00,0005.42,0004.97
2023-06-06 13:37:00,SystemResetWarning,0832.0,4.99,000.00,029.1,027.4,000.0,037.6,030.5,27.9,0001.2,0008.68,0005.34,0004.89
2023-06-06 13:38:00,SystemResetWarning,0832.0,4.99,000.00,029.1,027.5,000.0,037.6,030.5,27.9,0001.8,0008.47,0005.28,0004.81
2023-06-06 13:39:00,SystemResetWarning,0832.0,4.99,000.00,029.1,027.5,000.0,037.6,030.5,28.7,0002.2,0008.46,0005.22,0004.74
2023-06-06 13:40:00,SystemResetWarning,0832.0,5.01,000.00,029.1,027.5,000.0,037.6,030.5,28.7,0002.5,0008.28,0005.12,0004.65
2023-06-06 13:41:00,SystemResetWarning,0832.0,5.00,000.00,029.1,027.5,000.0,037.6,030.5,28.6,0002.2,0008.14,0005.05,0004.59
2023-06-06 13:42:00,SystemResetWarning,0832.0,5.00,000.00,029.1,027.5,000.0,037.6,030.6,28.5,0000.1,0007.98,0004.98,0004.54
2023-06-06 13:43:00,SystemResetWarning,0832.0,5.00,000.00,029.1,027.5,000.0,037.6,030.5,28.2,0000.0,0007.81,0004.92,0004.50
2023-06-06 13:44:00,SystemResetWarning,0832.0,5.00,000.00,029.1,027.5,000.0,037.6,030.5,28.1,0000.0,0007.74,0004.87,0004.45
2023-06-06 13:45:00,SystemResetWarning,0832.0,5.00,000.00,029.1,027.5,000.0,037.6,030.6,28.1,0000.0,0007.65,0004.84,0004.41
2023-06-06 13:46:00,SystemResetWarning,0832.0,5.01,000.00,029.1,027.5,000.0,037.6,030.6,27.9,0000.0,0007.65,0004.82,0004.38
2023-06-06 13:47:00,SystemResetWarning,0832.0,4.99,000.00,029.1,027.5,000.0,037.7,030.6,27.8,0000.0,0007.64,0004.81,0004.37
2023-06-06 13:48:00,SystemResetWarning,0832.0,5.01,000.00,029.1,027.5,000.0,037.7,030.6,27.9,0002.1,0007.66,0004.80,0004.36
2023-06-06 13:49:00,SystemResetWarning,0832.0,5.00,000.00,029.1,027.5,000.0,037.7,030.6,27.8,0002.6,0007.82,0004.79,0004.34
2023-06-06 13:50:00,SystemResetWarning,0832.0,4.98,000.00,029.1,027.5,000.0,037.7,030.6,27.8,0002.1,0007.73,0004.75,0004.31
2023-06-06 13:51:00,SystemResetWarning,0832.0,5.02,000.00,029.2,027.5,000.0,037.7,030.6,27.8,0001.7,0007.78,0004.77,0004.32
2023-06-06 13:52:00,SystemResetWarning,0832.0,5.00,000.00,029.2,027.5,000.0,037.7,030.6,28.1,0001.5,0007.88,0004.79,0004.30
2023-06-06 13:53:00,SystemResetWarning,0832.1,4.98,000.00,029.2,027.5,000.0,037.7,030.6,28.3,0001.4,0008.12,0004.79,0004.29
2023-06-06 13:54:00,SystemResetWarning,0832.0,5.00,000.00,029.2,027.6,000.0,037.7,030.6,28.4,0001.3,0008.25,0004.77,0004.26
2023-06-06 13:55:00,SystemResetWarning,0832.1,5.01,000.00,029.2,027.6,000.0,037.7,030.6,28.2,0001.6,0008.39,0004.77,0004.23
2023-06-06 13:56:00,SystemResetWarning,0832.0,4.99,000.00,029.2,027.6,000.0,037.7,030.7,28.4,0001.6,0008.39,0004.74,0004.22
2023-06-06 13:57:00,SystemResetWarning,0832.0,4.99,000.00,029.2,027.6,000.0,037.7,030.7,28.4,0000.0,0008.40,0004.71,0004.19
2023-06-06 13:58:00,SystemResetWarning,0832.0,5.01,000.00,029.2,027.6,000.0,037.7,030.7,28.4,0000.0,0008.38,0004.68,0004.16
2023-06-06 13:59:00,SystemResetWarning,0832.0,5.01,000.00,029.2,027.6,000.0,037.7,030.7,28.3,0000.0,0008.33,0004.67,0004.15
